Location: Fort Wayne
(41.1310°N, 85.1290°W)
Time: 00:58:16
(UTC-05:00)

ISS - Visible Passes

Search period start: 28 February 2017 00:00
Search period end: 10 March 2017 00:00
Orbit: 399 x 408 km, 51.6° (Epoch: 28 February)

Date Brightness Start Highest point End Pass type
(mag) Time Alt. Az. Time Alt. Az. Time Alt. Az.
01 Mar -0.6 06:04:35 10° S 06:06:56 18° SE 06:09:17 10° E visible
03 Mar -2.3 05:55:34 15° SSW 05:58:00 43° SE 06:01:09 10° ENE visible
04 Mar -1.2 05:05:34 22° SE 05:05:34 22° SE 05:08:10 10° E visible
04 Mar -2.8 06:38:40 10° WSW 06:41:50 43° NNW 06:45:00 10° NE visible
05 Mar -3.4 05:48:04 39° WSW 05:49:10 78° NW 05:52:28 10° NE visible
06 Mar -1.5 04:57:45 32° E 04:57:45 32° E 04:59:47 10° ENE visible
06 Mar -1.8 06:30:24 10° W 06:33:12 25° NNW 06:36:00 10° NE visible
07 Mar -2.6 05:39:58 35° NW 05:40:24 37° NNW 05:43:30 10° NE visible
08 Mar -1.1 04:49:28 24° NE 04:49:28 24° NE 04:50:58 10° NE visible
08 Mar -1.2 06:22:20 10° WNW 06:24:37 17° NNW 06:26:56 10° NNE visible
09 Mar -1.7 05:31:31 22° NNW 05:31:44 22° NNW 05:34:25 10° NNE visible
